Вернуться в каталог

FENGYUN 1C DEB

АктивенSSO
NORAD 31433·DEBRIS·🇨🇳 China

Запущен May 10, 1999 с Taiyuan Satellite Launch Center

Loading…

Ближайшие Пролёты (ближайшие 24 часа)

TLE

СвежийSource: Space-Track

Эпоха: Sep 14, 2026, 04:02 UTC

1 31433U 99025BTV 26257.16859398  .00002983  00000-0  11606-2 0  9998
2 31433  98.3953 154.9527 0094944 301.5150 216.9526 14.28063653994800

Отслеживайте FENGYUN 1C DEB в реальном времени с AllMySat

Download on the App Store